Dewpoint
44 45 45 45 47 48 48 49 49 49 49 49 49 48 47 47 47 47 47 55 58 57 56 56 56 57 57 57 57 57 57 57 57 57 59 60 60 60 60 60 60 61 62
43 43 43 44 46 47 47 49 49 48 48 49 49 49 48 47 47 48 48 49 56 57 56 56 55 56 56 56 56 56 56 56 56 56 57 56 57 57 58 58 58 59 60
43 42 43 43 45 46 47 49 47 47 48 49 49 48 47 46 47 47 50 52 55 56 55 54 55 56 55 55 55 55 55 57 57 57 57 56 58 59 60 60 60 59 59
43 43 43 43 43 45 47 47 46 46 47 48 48 47 47 48 48 49 50 50 52 54 54 56 56 55 54 55 56 57 57 57 57 57 57 57 59 60 59 59 58 58 60
43 43 44 44 43 44 44 46 46 46 46 47 47 46 48 48 49 50 48 49 49 50 53 56 53 52 52 52 55 55 55 56 57 57 57 57 58 58 58 58 59 59 59
43 43 44 44 43 43 42 43 45 46 45 46 46 46 47 47 49 49 47 48 48 50 52 55 52 50 53 54 53 53 53 55 56 56 57 56 56 57 57 58 59 59 60
43 44 44 44 44 43 43 43 44 45 44 46 45 45 47 48 45 47 48 46 47 50 51 50 49 51 52 53 52 51 50 52 54 55 55 55 54 55 57 58 59 60 61
44 45 44 45 45 44 43 42 42 45 45 45 44 44 43 45 44 46 46 45 45 51 50 50 49 50 51 51 51 50 49 51 52 53 54 54 53 53 56 58 59 60 61
45 45 45 45 45 45 44 43 42 44 44 44 44 44 41 41 42 44 43 43 45 47 50 50 49 49 48 49 50 48 48 49 50 53 53 53 52 52 53 56 58 59 60
45 45 46 46 46 46 45 44 43 43 45 44 44 45 45 45 41 40 42 42 44 44 46 48 49 48 47 48 49 46 47 48 49 50 52 51 52 52 52 54 56 57 59
46 47 47 46 46 46 46 46 44 42 44 45 44 43 43 43 43 42 39 40 42 44 45 45 45 49 49 48 48 45 46 46 48 48 50 50 50 50 50 51 54 57 58
43 44 45 47 46 47 47 46 45 44 43 45 45 44 43 42 41 41 38 39 41 44 44 43 46 50 50 48 48 45 46 45 45 47 48 48 48 48 48 49 50 54 56
42 42 44 45 46 47 47 47 46 45 43 43 44 45 44 44 44 43 42 40 40 42 41 43 45 50 49 47 47 45 45 45 44 45 47 46 45 45 46 47 48 49 52
41 43 43 44 44 45 46 46 46 45 45 44 43 44 45 45 45 43 43 41 40 40 40 40 44 49 49 48 47 45 44 43 42 43 44 42 42 42 44 44 45 47 48
40 40 40 41 42 44 44 45 45 45 45 44 43 43 45 46 46 44 43 43 43 38 37 39 41 47 46 46 45 45 44 43 42 42 42 40 40 41 42 42 43 45 46
37 36 37 38 39 40 42 43 44 45 45 45 44 43 43 45 46 45 44 44 44 44 39 40 40 42 43 43 43 43 44 42 41 42 41 38 38 39 40 41 41 42 44
35 35 36 36 37 37 38 39 40 41 42 43 44 44 43 43 44 45 45 45 44 44 42 41 42 42 42 42 42 43 43 42 40 41 39 37 36 36 39 39 39 41 44
36 36 36 36 36 36 36 37 37 38 38 39 41 42 43 43 42 43 44 44 44 43 42 41 42 42 41 41 41 41 41 42 39 37 38 36 35 37 39 38 37 39 41
35 35 35 35 36 36 36 36 36 36 37 38 39 40 41 42 42 41 41 42 43 44 43 42 42 41 40 39 39 39 38 37 36 37 38 36 34 38 39 38 36 35 39
34 34 34 35 35 35 35 36 37 37 37 38 38 39 40 41 42 42 41 41 42 42 42 42 41 40 38 37 35 33 31 33 33 35 35 31 32 38 39 39 36 33 35
34 34 34 33 34 35 35 37 38 38 38 37 37 39 40 41 42 42 41 40 40 40 41 41 40 37 35 33 32 31 31 32 30 31 32 31 30 30 34 39 37 33 30
33 33 32 33 33 34 35 36 38 37 37 37 36 38 40 40 41 41 43 44 41 39 38 38 37 37 35 33 32 30 29 28 23 29 29 25 28 27 29 32 34 33 30
32 32 32 32 32 33 34 36 38 37 36 36 36 37 38 40 41 41 41 41 43 43 42 39 37 36 35 34 32 29 27 27 25 27 27 24 25 24 27 28 34 32 32
31 32 32 33 32 33 34 35 36 37 35 35 36 36 36 37 39 40 40 39 38 38 39 42 42 40 37 35 32 29 27 27 28 28 26 24 24 23 26 27 32 33 32
31 32 33 34 34 34 35 36 36 34 35 35 35 35 36 35 37 39 37 36 36 36 37 39 41 41 42 40 37 30 27 26 25 25 27 24 24 24 25 25 26 31 33
32 34 35 35 35 35 34 36 37 36 35 35 36 36 36 38 39 37 36 36 34 34 35 36 36 35 40 41 41 32 30 27 26 27 27 24 25 24 15 27 26 28 31
Wind_Speed
8 8 10 10 10 11 12 14 15 15 16 16 16 15 14 13 11 9 8 4 1 4 6 7 7 6 7 7 8 9 9 10 10 11 11 12 12 12 14 15 16 17 18
6 8 10 10 9 11 12 12 13 15 16 15 16 16 14 14 13 10 8 4 1 5 7 9 8 7 8 8 8 8 8 9 10 12 13 14 14 15 15 16 17 18 19
6 8 9 10 9 11 12 11 12 15 15 15 16 16 15 16 16 8 6 6 5 7 8 11 9 9 10 10 9 8 8 9 10 10 11 12 14 15 14 16 18 18 20
5 7 8 8 8 10 10 9 10 14 15 14 14 15 16 14 11 7 6 8 10 7 7 10 11 12 12 10 11 12 12 13 13 12 12 13 14 13 14 17 18 19 21
4 4 7 9 8 8 10 9 8 10 15 15 14 14 14 13 9 4 8 9 7 6 7 10 11 11 11 10 11 14 13 13 14 14 14 15 16 17 19 21 23 24 25
5 5 7 9 8 8 10 11 8 8 12 15 16 14 13 10 6 2 5 5 5 5 8 7 4 8 9 9 11 11 13 13 13 14 15 15 17 19 20 23 24 26 29
6 6 7 9 9 9 8 9 5 8 10 12 10 13 9 6 10 6 2 2 2 5 8 5 5 6 5 6 8 9 13 12 14 13 14 15 16 19 22 24 25 27 31
8 7 7 9 9 9 9 9 7 6 3 11 6 5 7 5 12 11 8 11 9 2 4 4 6 5 4 4 4 5 10 13 13 14 15 15 17 19 22 25 27 27 27
9 9 9 9 8 7 9 6 7 5 4 4 9 2 5 4 11 5 7 13 15 10 5 1 3 5 5 3 3 5 8 11 12 13 13 14 17 19 20 24 26 28 26
10 11 10 9 9 8 9 8 6 4 2 5 5 4 2 5 3 8 6 13 10 12 9 8 5 5 4 3 2 5 9 11 13 13 14 14 17 19 21 22 24 26 25
10 10 11 11 10 9 10 9 9 8 5 5 5 3 4 6 8 8 14 11 12 13 13 10 13 5 2 3 2 3 8 9 12 14 14 15 17 18 20 20 21 23 24
9 10 9 10 12 11 11 11 10 9 10 9 8 9 8 6 7 7 12 14 15 11 12 13 8 5 3 2 0 3 8 8 11 13 14 14 16 17 18 19 19 20 22
10 12 10 9 9 11 13 12 12 11 11 12 11 13 13 14 12 11 10 14 14 11 10 13 7 7 6 5 3 3 7 6 9 12 13 14 15 15 15 16 17 17 18
11 11 11 10 11 11 12 13 11 12 12 13 16 13 14 14 13 10 8 9 13 9 8 6 4 4 5 5 4 4 5 5 7 9 11 13 13 14 14 14 15 15 16
10 10 10 12 13 13 13 13 13 15 14 15 16 15 15 15 14 13 11 10 10 9 11 4 3 1 3 5 7 6 7 5 8 7 8 10 11 12 12 12 13 13 13
8 11 12 12 13 13 12 11 13 13 14 16 14 16 16 15 15 14 14 14 11 12 11 5 6 5 12 8 10 7 7 7 7 7 6 7 8 10 9 11 12 11 10
11 12 12 13 13 13 13 12 12 13 14 16 16 17 19 16 16 15 15 14 15 14 16 16 8 5 8 13 12 8 8 7 8 8 7 7 7 8 7 7 9 10 9
11 12 12 14 15 14 13 12 13 12 14 15 16 16 18 16 18 17 16 18 17 17 16 20 13 10 10 8 9 9 9 8 8 9 9 8 7 7 5 4 6 7 6
12 12 12 14 15 15 14 14 14 14 14 13 14 16 17 16 19 17 18 18 17 16 16 16 15 7 7 5 6 5 7 8 9 11 11 9 7 6 5 3 2 3 4
13 13 13 13 13 14 14 14 13 12 11 12 13 15 16 16 17 18 18 18 17 17 15 17 15 14 9 6 4 8 12 4 7 5 8 7 7 7 8 7 5 3 3
13 13 13 13 14 12 11 12 12 11 13 16 16 14 14 15 17 17 15 18 16 16 15 17 16 9 9 7 10 4 7 7 8 5 5 6 7 8 10 11 9 8 6
13 12 14 14 15 11 13 15 12 11 13 14 17 16 14 16 15 15 14 17 16 17 17 13 14 17 15 11 8 9 8 6 5 2 1 5 3 10 11 10 11 10 9
12 14 15 14 16 14 15 15 13 9 13 15 15 15 15 12 14 13 13 13 14 15 16 15 19 18 16 14 11 10 10 8 8 4 2 9 3 9 9 10 12 13 11
14 14 15 15 14 15 16 17 14 9 11 13 15 16 14 14 11 10 9 11 12 12 11 12 17 18 17 11 12 10 11 8 4 6 5 7 2 6 4 7 10 12 10
15 16 15 17 16 18 15 15 8 8 11 14 13 13 12 12 12 8 6 9 10 11 10 14 16 18 16 14 12 9 9 8 8 6 7 6 4 4 3 4 5 8 9
15 15 17 16 17 16 15 11 8 8 12 12 13 13 15 14 12 4 5 7 12 13 10 10 8 7 9 12 13 15 12 13 9 4 5 12 4 3 4 1 3 4 6
Wind_Direction
10 1 353 353 2 4 357 348 342 343 343 339 332 334 335 338 332 336 321 299 134 57 37 26 6 341 334 336 332 326 323 319 315 312 320 317 315 310 304 299 294 290 291
9 0 353 354 359 358 350 347 353 354 343 339 336 334 337 338 339 332 353 353 106 76 63 49 28 12 2 355 347 341 332 331 330 328 322 317 313 306 301 297 292 287 285
9 357 352 353 350 352 351 0 359 356 347 343 339 336 337 336 330 330 12 55 92 81 72 58 44 32 16 3 355 350 353 1 349 329 322 316 312 301 294 299 291 284 282
6 354 345 340 339 353 350 347 359 356 346 341 332 324 321 326 315 352 73 75 76 75 56 75 64 40 17 4 9 15 11 4 348 340 323 326 329 336 330 322 310 299 288
328 329 334 327 331 343 351 351 347 1 347 336 324 317 316 318 299 34 88 94 79 83 90 109 77 38 13 7 14 8 3 360 347 339 340 348 350 347 338 326 317 307 301
299 322 325 322 334 344 347 349 343 351 347 336 323 318 311 297 303 65 113 117 127 105 95 119 69 39 1 15 20 10 5 357 345 350 354 356 354 345 338 328 315 307 297
299 307 313 322 333 337 334 343 341 343 351 343 343 344 347 41 26 339 68 118 103 133 132 124 87 63 23 22 21 11 358 356 346 354 354 359 346 344 336 332 331 324 313
279 284 292 308 316 321 328 335 343 336 344 348 340 347 360 340 1 16 21 19 14 184 185 125 102 85 44 6 10 12 356 354 345 346 346 353 351 347 345 341 347 352 356
271 267 271 277 293 303 304 311 316 309 329 334 349 353 346 339 332 338 356 22 22 6 330 264 167 143 104 343 307 11 357 348 343 343 344 351 352 350 348 349 354 358 5
288 277 266 262 272 282 283 288 282 271 252 297 340 5 319 291 317 323 319 336 345 348 332 317 285 223 165 180 19 10 352 349 343 341 342 346 354 353 353 353 357 359 6
310 300 272 263 262 269 279 279 280 275 260 236 225 263 286 286 267 256 296 308 324 331 331 324 309 261 177 100 3 345 350 344 347 344 345 348 356 357 357 356 357 2 10
317 321 311 274 267 267 269 274 267 268 266 255 242 228 232 249 276 289 294 301 301 308 313 308 308 220 197 125 315 311 341 336 341 346 347 350 357 360 359 359 360 4 10
317 313 307 298 289 274 269 264 264 257 259 267 256 248 237 237 249 266 281 293 301 305 305 305 312 214 200 172 216 262 334 330 337 344 346 354 359 360 1 0 1 3 8
295 291 292 292 289 286 282 275 263 255 252 255 267 259 250 241 243 248 259 286 297 292 303 279 309 232 225 312 330 276 331 318 326 338 343 349 356 357 359 0 2 6 12
305 312 319 309 303 297 290 281 273 269 258 258 255 258 257 250 245 244 234 238 253 289 311 309 305 47 17 317 312 302 297 297 310 320 332 341 347 351 354 360 2 5 13
320 322 318 309 305 302 297 292 286 279 270 266 260 264 258 252 247 238 234 229 228 245 264 251 265 267 316 299 291 305 303 280 286 289 296 319 331 337 347 356 1 4 14
323 321 315 311 310 307 302 296 290 288 283 277 272 266 264 258 253 244 237 234 230 223 250 268 260 269 279 291 295 283 290 268 272 263 261 291 307 316 330 353 2 5 21
316 314 315 313 311 308 306 302 298 291 288 288 284 279 274 269 259 250 241 238 233 226 233 254 261 261 254 264 281 284 289 274 270 249 243 263 286 291 296 337 4 6 24
313 315 315 311 308 306 306 303 296 292 285 283 289 286 281 274 270 261 252 246 239 236 234 242 258 243 266 275 285 278 283 289 287 266 247 251 263 272 263 262 313 353 7
318 318 315 311 310 311 310 306 304 303 301 297 295 289 286 275 266 266 259 253 247 244 236 243 250 255 255 266 262 282 295 291 293 293 261 252 257 257 254 239 252 266 297
317 314 314 314 314 314 306 313 313 308 309 309 305 295 288 283 275 263 256 258 253 250 244 241 247 247 249 252 254 258 271 288 293 262 270 255 257 257 249 249 246 248 246
317 316 316 316 316 313 310 313 309 303 305 304 302 300 294 294 291 283 274 257 245 251 255 245 246 247 248 251 252 258 255 263 295 237 253 286 239 262 251 240 239 233 231
313 312 312 314 311 308 306 307 305 296 303 302 296 295 296 286 289 282 281 279 268 254 244 246 253 245 247 233 242 251 233 221 238 250 223 280 248 269 256 247 238 228 223
306 306 306 306 303 302 303 305 301 294 304 306 302 300 294 293 289 283 285 281 275 271 271 254 248 260 245 228 214 223 230 225 245 256 185 270 244 270 285 259 242 218 229
304 303 300 303 304 303 305 310 297 297 309 312 313 315 313 311 295 288 297 290 287 284 285 278 261 257 255 245 228 180 197 201 240 250 206 225 245 261 271 267 249 251 229
293 297 300 297 297 299 303 315 303 300 309 313 316 318 324 326 310 304 314 303 299 296 299 299 307 299 267 255 240 210 205 218 214 283 223 193 205 204 286 298 284 263 240